Regional Weather Roundup
Issued by NWS Upton, NY

Current Version | Previous Version | Text Only | Print | Product List | Glossary On
Versions: 1 2 3 4 5 6 7 8 9 10 11 12 13 14 15 16 17 18 19 20 21 22 23 24 25 26 27 28 29 30 31 32 33 34 35 36 37 38 39 40 41 42 43 44 45 46 47 48 49 50
000 ASUS41 KOKX 042204 RWROKX REGIONAL WEATHER ROUNDUP NATIONAL WEATHER SERVICE NEW YORK NY 600 PM EDT FRI SEP 04 2015 NOTE: "FAIR" INDICATES FEW OR NO CLOUDS BELOW 12,000 FEET WITH NO SIGNIFICANT WEATHER AND/OR OBSTRUCTIONS TO VISIBILITY. NYZ071-072-176-178-NJZ106-104-042300- NEW YORK CITY METRO AREA CITY SKY/WX TMP DP RH WIND PRES REMARKS CENTRAL PARK MOSUNNY 82 62 50 E12 30.14S LAGUARDIA APRT MOSUNNY 83 63 50 NE13 30.11R KENNEDY INTL MOSUNNY 79 66 64 E14G20 30.12S NEWARK/LIBERTY MOSUNNY 80 68 66 SE9 30.11R BRNX BOT. GARD N/A 81 63 54 N2 30.12S TETERBORO SUNNY 82 61 48 E8 30.10S $$ NYZ177-179-078>081-042300- LONG ISLAND NEW YORK CITY SKY/WX TMP DP RH WIND PRES REMARKS FARMINGDALE SUNNY 79 65 62 SE12 30.12S ISLIP MOSUNNY 79 63 57 SE10 30.11R SHIRLEY SUNNY 79 64 60 VRB5 30.14R WESTHAMPTON SUNNY 78 59 51 E9G17 30.15R MONTAUK POINT N/A 74 64 71 NE8 30.17R $$ NYZ052-065-067-042300- HUDSON VALLEY CITY SKY/WX TMP DP RH WIND PRES REMARKS WHITE PLAINS SUNNY 78 63 59 SE7 30.13S NEWBURGH MOSUNNY 81 68 65 E9 30.14S MONTGOMERY MOSUNNY 81 67 62 E5 30.13R POUGHKEEPSIE CLOUDY 83 62 49 NE8 30.11S ALBANY PTSUNNY 82 63 52 SE6 30.13R $$ NJZ001-105-106-008-010-013-015-019>022-104-042300- NEW JERSEY CITY SKY/WX TMP DP RH WIND PRES REMARKS NEWARK/LIBERTY MOSUNNY 80 68 66 SE9 30.11R TETERBORO SUNNY 82 61 48 E8 30.10S CALDWELL SUNNY 81 62 52 SE12 30.12R MORRISTOWN MOSUNNY 82 66 57 NE14G20 30.11S SOMERVILLE PTSUNNY 81 68 64 VRB3 30.09R SUSSEX PTSUNNY 79 67 66 E6 30.12S ANDOVER N/A 79 67 66 MISG 30.12S TRENTON SUNNY 80 66 62 E13 30.09R MILLVILLE PTSUNNY 80 69 69 E13 30.08R ATLANTIC CITY CLOUDY 77 70 79 NE15 30.09R WRIGHTSTOWN MOSUNNY 77 69 76 E17 30.08R TOMS RIVER PTSUNNY 75 66 73 E9 30.12R BELMAR MOSUNNY 73 63 68 E18G26 30.12R $$ PAZ047>061-062-071-042300- EASTERN PENNSYLVANIA CITY SKY/WX TMP DP RH WIND PRES REMARKS PHILADELPHIA PTSUNNY 82 67 60 E15 30.09R ALLENTOWN PTSUNNY 83 69 62 E15 30.09R SCRANTON SUNNY 82 67 60 VRB5 30.10S $$ CTZ002-004>006-009-010-012-RIZ004-006-007-MAZ004-011-015-042300- SOUTHERN NEW ENGLAND IN CT CITY SKY/WX TMP DP RH WIND PRES REMARKS BRADLEY INTL MOSUNNY 80 58 46 N10 30.14R HARTFORD SUNNY 81 60 48 SE9 30.13R DANBURY PTSUNNY 79 64 60 S8 30.15R WTRBRY/OXFORD MOSUNNY 81 61 50 E5 30.17S BRIDGEPORT SUNNY 79 66 64 E14 30.13R MERIDEN SUNNY 83 59 44 VRB6 30.13S NEW HAVEN MOSUNNY 78 65 63 SE9 30.14R CHESTER NOT AVBL GROTON SUNNY 78 62 57 E9 30.14R WILLIMANTIC MOSUNNY 78 59 51 NE10 30.16R IN RI CITY SKY/WX TMP DP RH WIND PRES REMARKS PROVIDENCE MOSUNNY 72 58 61 NE13 30.18R BLOCK ISLAND SUNNY 70 64 83 E13G20 30.16S WESTERLY SUNNY 75 61 61 NE13 30.17R IN MA CITY SKY/WX TMP DP RH WIND PRES REMARKS BOSTON MOSUNNY 65 59 81 E10 30.21S WORCESTER SUNNY 70 55 59 E9 30.21R WESTFIELD MOSUNNY 78 57 48 NE12G17 30.16R PROVINCETOWN N/A 66 59 77 NE13 30.20R NANTUCKET MOSUNNY 72 63 73 NE18 30.14F $$ ANZ330-335-338-340-345-350-353-355-042300- COASTAL MARINE OBSERVATIONS STATION/POSITION TIME SKY/WX TEMP WIND PRES VSBY WAVE AIR SEA DIR/SP/G HT/PER (UTC) (F) (DEG/KT/KT) (MB) (MI) (FT/S) NY HARB ENTRANCE 2050 74 77 100/ 19/ 25 1018.8 4/ 6 4S FIRE IS NOT AVBL 20S FIRE ISLAND 2050 73 75 70/ 19/ 23 1018.9 6/ 6 GREAT SOUTH BAY 2115 75 80 100/ 17/ 19 N/A 23SW MTP 2150 71 74 60/ 21/ 25 1019.5 6/ 6 HUDSON CANYON NOT AVBL KINGS POINT 2100 81 74 60/ 6/ 9 1018.9 EXECUTION ROCKS 2100 80 80/ 12/ 14 N/A CENTRAL LI SOUND NOT AVBL EASTERN LI SOUND 2100 75 71 80/ 8/ 14 N/A ROBBINS REEF 2100 77 130/ 11/ 12 1018.5 $$ >>>>>>>>>>>>>>>>>>>>>>>>>>>> KEY <<<<<<<<<<<<<<<<<<<<<<<<<<< > < > SKY/WX - SKY CONDITION/PRESENT WEATHER < > TMP - TEMPERATURE IN FAHRENHEIT < > DP - DEWPOINT IN FAHRENHEIT < > RH - RELATIVE HUMIDITY IN PERCENT < > WIND - DIRECTION AND SPEED IN MPH < > PRES - MEAN SEA LEVEL PRESSURE IN INCHES OF HG < > WCI - WIND CHILL INDEX < > VSB - VISIBILITY IN MILES < > HX - HEAT INDEX < > TC - TEMPERATURE IN CELSIUS < > VRB - VARIABLE WIND DIRECTION < > < >>>>>>>>>>>>>>>>>>>>>>>>>>>> KEY <<<<<<<<<<<<<<<<<<<<<<<<<<<

USA.gov is the U.S. government's official web portal to all federal, state and local government web resources and services.